Regional Weather Roundup
Issued by NWS Spokane, WA

Home | Current Version | Previous Version | Text Only | Print | Product List | Glossary On
Versions: 1 2 3 4 5 6 7 8 9 10 11 12 13 14 15 16 17 18 19 20 21 22 23 24 25 26 27 28 29 30 31 32 33 34 35 36 37 38 39 40 41 42 43 44 45 46 47 48 49 50
904
NZUS01 KOTX 190325
RWROTX

Eastern Washington/Northern Idaho Roundup
National Weather Service, Spokane WA
700 PM PST WED JAN 18 2017

Note: "fair" indicated few or no clouds below 12,000 feet with no
significant weather and/or obstructions to visibility.

...Northeast Washington and Northern Idaho Panhandle...

CITY           SKY/WX    TMP DP  RH WIND       PRES   REMARKS
Spokane Intl   LGT RAIN  36  33  89 E3        29.51F
Spokane Downto CLOUDY    35  34  96 CALM      29.52F
Coeur d Alene  CLOUDY    34  33  96 VRB5      29.54F WCI  30
Deer Park      CLOUDY    35  33  92 NE3       29.52F
Sandpoint      CLOUDY    32  32 100 CALM      29.54F FOG
Bonners Ferry  FOG       32  32 100 CALM      29.54F VSB 1/4

...Southeast Washington and southern Idaho Panhandle...

CITY           SKY/WX    TMP DP  RH WIND       PRES   REMARKS
Walla Walla    LGT RAIN  41  31  67 VRB6      29.49S
Pullman/Moscow LGT RAIN  36  32  85 SE17      29.55F
Lewiston       LGT RAIN  37  33  85 E7        29.58F
Lowell           N/A     33  31  92 N3        29.65F
Grangeville    CLOUDY    37  32  81 CALM      29.55F

...Columbia Basin...

CITY           SKY/WX    TMP DP  RH WIND       PRES   REMARKS
Ephrata        LGT RAIN  34  29  82 N7        29.47F WCI  28
Moses Lake     FRZ RAIN  32  30  92 W3        29.49F
Pasco          LGT RAIN  31  30  96 SW7       29.53S FOG     WCI  24
Richland       LGT RAIN  32  31  96 MISG      29.53S
Hermiston      LGT RAIN  42  35  76 E12       29.44F
Pendleton      LGT RAIN  41  33  73 SE23      29.44F

...East Slopes Cascades...

CITY           SKY/WX    TMP DP  RH WIND       PRES   REMARKS
The Dalles     CLOUDY    29  26  89 NW5       29.44R FOG     WCI  24
Yakima         FRZ RAIN  32  29  88 E3        29.46F FOG
Ellensburg     LGT SNOW  31  27  85 CALM      29.42F FOG
Stampede Pass  FOG       29  29 100 VRB5      29.29R VSB 1/2 WCI  24
Wenatchee      LGT SNOW  25  25 100 CALM      29.48F FOG
Omak           LGT SNOW  29  26  89 SW3       29.51S FOG
Chelan           N/A     27  12  54 MISG        N/A
Sunnyside      MIX PCPN  26  23  89 CALM      29.49F

...Southern British Columbia...

CITY           SKY/WX    TMP DP  RH WIND       PRES   REMARKS
Penticton      LGT RAIN  36  34  93 S17G24    29.44F
Cranbrook      CLOUDY    34  30  86 W5        29.53R WCI  30
Osoyoos          N/A     34  32  93 S8          N/A  WCI  27
Creston          N/A     32  32 100 CALM        N/A

...Western Montana...

CITY           SKY/WX    TMP DP  RH WIND       PRES   REMARKS
Kalispell      CLOUDY    30  29  96 NW3       29.57F FOG
Missoula       CLOUDY    28  23  81 CALM      29.60F

...Neighboring Cities...

CITY           SKY/WX    TMP DP  RH WIND       PRES   REMARKS
Seattle        CLOUDY    47  40  76 SE8       29.25R
Portland       LGT RAIN  39  38  96 SE8       29.34R
Boise          LGT RAIN  33  31  92 SE14G23   29.73F FOG     WCI  23
Great Falls    CLOUDY    42  25  50 SW15      29.51F
Calgary        CLEAR     37  27  65 N5        29.28F



USA.gov is the U.S. government's official web portal to all federal, state and local government web resources and services.